Weather History for KWVI - March, 2013

Change the Weather History Date:

Saturday, March 30, 2013

  Actual Average Record
Temperature  
Mean Temperature 58 °F 54 °F  
Max Temperature 66 °F 65 °F 81 °F (2003)
Min Temperature 50 °F 43 °F 37 °F (2008)
Degree Days  
Heating Degree Days 7    
Month to date heating degree days 339  
Since 1 July heating degree days 2512  
Cooling Degree Days 0    
Month to date cooling degree days 0  
Year to date cooling degree days 0  
Growing Degree Days 7 (Base 50)    
Moisture  
Dew Point 50 °F    
Average Humidity 78    
Maximum Humidity 100    
Minimum Humidity 56    
Precipitation  
Precipitation 0.05 in - - ()
Month to date precipitation 0.46  
Year to date precipitation 1.61  
Since 1 July precipitation 12.55  
Sea Level Pressure  
Sea Level Pressure 30.07 in    
Wind  
Wind Speed 6 mph (WSW)    
Max Wind Speed 15 mph    
Max Gust Speed 20 mph    
Visibility 7 miles    
Events Fog , Rain    
T = Trace of Precipitation, MM = Missing Value Source: NWS Daily Summary

Daily Weather History Graph

Daily Weather History Graph

Search for Another Location

Airport or City:

Trip Planner

Search our weather history database for the weather conditions in past years. The results will help you decide how hot, cold, wet, or windy it might be!

Date:

Astronomy

Mar. 30, 2013 Rise Set
Actual Time 6:55 AM PDT 7:28 PM PDT
Civil Twilight 6:29 AM PDT 7:54 PM PDT
Nautical Twilight 5:58 AM PDT 8:25 PM PDT
Astronomical Twilight 5:27 AM PDT 8:56 PM PDT
Moon 11:34 PM PDT (3/30) 9:00 AM PDT (3/30)
Length of Visible Light 13h 24m
Length of Day
12h 32m
Waning Gibbous, 85% of the Moon is Illuminated
Mar 30
Waning Gibbous
Apr 2
Last Quarter
Apr 10
New
Apr 18
First Quarter
Apr 25
Full

Hourly Weather History & Observations

Time (PDT) Temp. Dew Point Humidity Pressure Visibility Wind Dir Wind Speed Gust Speed Precip Events Conditions
12:53 AM 52.0 °F 50.0 °F 93% 30.09 in 8.0 mi Calm Calm - N/A   Overcast
1:53 AM 52.0 °F 50.0 °F 93% 30.08 in 8.0 mi Calm Calm - N/A   Overcast
2:32 AM 51.8 °F 50.0 °F 94% 30.08 in 7.0 mi Calm Calm - N/A   Overcast
2:53 AM 52.0 °F 50.0 °F 93% 30.08 in 6.0 mi SSW 3.5 mph - N/A   Overcast
3:21 AM 51.8 °F 50.0 °F 94% 30.09 in 1.8 mi SSW 4.6 mph - N/A   Overcast
3:31 AM 51.8 °F 50.0 °F 94% 30.08 in 1.0 mi SW 3.5 mph - N/A   Mist
3:43 AM 51.8 °F 50.0 °F 94% 30.08 in 0.8 mi Calm Calm - N/A   Mist
3:53 AM 51.1 °F 50.0 °F 96% 30.08 in 0.5 mi Calm Calm - N/A Fog Fog
4:53 AM 51.1 °F 50.0 °F 96% 30.06 in 0.5 mi SSW 4.6 mph - N/A Fog Fog
5:12 AM 50.0 °F 50.0 °F 100% 30.06 in 1.8 mi WSW 4.6 mph - N/A   Overcast
5:37 AM 50.0 °F 50.0 °F 100% 30.06 in 2.5 mi West 3.5 mph - N/A   Overcast
5:53 AM 50.0 °F 50.0 °F 100% 30.07 in 2.0 mi WSW 3.5 mph - N/A   Overcast
6:19 AM 50.0 °F 48.2 °F 94% 30.07 in 5.0 mi WNW 4.6 mph - N/A   Overcast
6:53 AM 50.0 °F 48.9 °F 96% 30.07 in 10.0 mi WSW 4.6 mph - N/A   Overcast
7:53 AM 51.1 °F 48.9 °F 92% 30.10 in 6.0 mi West 6.9 mph - N/A   Overcast
8:53 AM 51.1 °F 50.0 °F 96% 30.11 in 4.0 mi West 8.1 mph - N/A   Overcast
9:23 AM 51.8 °F 48.2 °F 88% 30.12 in 10.0 mi WSW 4.6 mph - N/A   Overcast
9:53 AM 54.0 °F 48.9 °F 83% 30.11 in 10.0 mi WNW 4.6 mph - N/A   Overcast
10:05 AM 53.6 °F 48.2 °F 82% 30.11 in 10.0 mi WSW 6.9 mph - N/A   Overcast
10:53 AM 55.0 °F 48.9 °F 80% 30.11 in 10.0 mi West 8.1 mph - N/A   Overcast
11:40 AM 59.0 °F 48.2 °F 67% 30.10 in 10.0 mi West 3.5 mph - N/A   Scattered Clouds
11:53 AM 59.0 °F 48.9 °F 69% 30.10 in 10.0 mi Variable 3.5 mph - N/A   Partly Cloudy
12:53 PM 61.0 °F 51.1 °F 70% 30.09 in 10.0 mi Variable 4.6 mph - N/A   Clear
1:53 PM 64.9 °F 48.0 °F 54% 30.08 in 10.0 mi SSW 11.5 mph - N/A   Clear
2:53 PM 63.0 °F 48.0 °F 58% 30.07 in 10.0 mi WSW 13.8 mph 19.6 mph N/A   Clear
3:53 PM 62.1 °F 48.0 °F 60% 30.05 in 10.0 mi WSW 4.6 mph - N/A   Clear
4:53 PM 60.1 °F 48.0 °F 64% 30.03 in 10.0 mi WSW 12.7 mph - N/A   Scattered Clouds
5:53 PM 59.0 °F 48.9 °F 69% 30.03 in 10.0 mi West 8.1 mph - N/A   Overcast
6:53 PM 57.9 °F 48.9 °F 72% 30.03 in 10.0 mi West 8.1 mph - N/A   Scattered Clouds
7:53 PM 57.9 °F 50.0 °F 75% 30.03 in 10.0 mi WNW 6.9 mph - N/A   Overcast
8:53 PM 57.0 °F 50.0 °F 77% 30.04 in 10.0 mi West 6.9 mph - N/A   Overcast
9:31 PM 55.4 °F 51.8 °F 88% 30.05 in 10.0 mi Variable 4.6 mph - N/A   Overcast
9:53 PM 55.9 °F 52.0 °F 87% 30.06 in 10.0 mi Variable 6.9 mph - 0.00 in Rain Light Rain
10:53 PM 55.0 °F 53.1 °F 93% 30.06 in 8.0 mi WSW 6.9 mph - 0.02 in Rain Light Rain
11:23 PM 55.4 °F 53.6 °F 94% 30.06 in 7.0 mi WNW 4.6 mph - 0.00 in Rain Light Rain
11:33 PM 53.6 °F 53.6 °F 100% 30.03 in 5.0 mi West 10.4 mph - 0.02 in Rain Rain
11:45 PM 53.6 °F 53.6 °F 100% 30.06 in 9.0 mi ESE 4.6 mph - 0.02 in Rain Light Rain
11:53 PM 55.0 °F 53.1 °F 93% 30.06 in 9.0 mi Calm Calm - 0.03 in Rain Light Rain